ARABSAT-5C

Last updated on Tue Sep 22 2026 00:03:12 GMT+0000 (Coordinated Universal Time)

1 37810U 11049B 26264.13668245 .00000119 00000+0 00000+0 0 9998 2 37810 0.0551 4.5538 0003899 185.6613 239.0151 1.00270912 54996
UTC large
Height (km)
Speed (km/s)
/
Latitude / Longitude
Inclination (degrees)
Orbital Period (minutes)
Azimuth
Elevation
Range (km)
Doppler Factor

Next 0 passes for location: London (51.5072 / 0.1276)

No passes found over London.
ARABSAT-5C